[[[{"header":{"parameterUnit":"kt","parameterCategory":2,"dx":1,"dy":1,"la1":30.253999710083008,"la2":30.299108505249023,"lo1":-89.0895004272461,"lo2":-89.04439544677734,"nx":28,"ny":28,"refTime":"2022-10-08T21:00:00:Z","depth":0,"parameterNumber":1,"parameterNumberName":"U-component_of_WINDS"},"data":[-4.6871,-4.6856,-4.6808,-4.6767,-4.6716,-4.6679,-4.665,-4.6607,-4.656,-4.6509,-4.647,-4.6417,-4.6348,-4.6288,-4.6243,-4.6219,-4.6204,-4.6235,-4.6203,-4.6109,-4.6092,-4.6077,-4.6078,-4.6232,-4.6233,-4.6307,-4.6308,-4.6309,-4.681,-4.6761,-4.6725,-4.6656,-4.6625,-4.6566,-4.6506,-4.6483,-4.6451,-4.6391,-4.635,-4.63,-4.6253,-4.617,-4.6116,-4.6106,-4.6074,-4.6095,-4.6095,-4.6085,-4.5983,-4.5985,-4.6122,-4.6122,-4.6122,-4.6122,-4.6122,-4.6122,-4.6686,-4.6678,-4.6608,-4.6568,-4.652,-4.6474,-4.6457,-4.6393,-4.6355,-4.6294,-4.6239,-4.6201,-4.613,-4.6038,-4.5994,-4.5961,-4.5928,-4.5934,-4.5936,-4.5939,-4.5951,-4.5853,-4.5949,-4.5948,-4.5948,-4.5947,-4.5947,0,-4.6579,-4.6539,-4.65,-4.6448,-4.6415,-4.6368,-4.6316,-4.6304,-4.6197,-4.6171,-4.6127,-4.6092,-4.6024,-4.5976,-4.5912,-4.5863,-4.5796,-4.5783,-4.5787,-4.5814,-4.5848,-4.5831,-4.5668,-4.578,-4.5779,-4.5777,-4.5777,-4.5776,-4.6451,-4.6448,-4.6349,-4.6328,-4.6287,-4.6255,-4.6225,-4.6131,-4.6103,-4.6023,-4.602,-4.597,-4.5925,-4.5861,-4.5782,-4.5729,-4.5696,-4.5745,-4.5687,-4.5714,-4.5698,-4.57,-4.5699,-4.5758,-4.5761,-4.5762,-4.5764,0,-4.6384,-4.6302,-4.6279,-4.618,-4.6155,-4.6155,-4.6069,-4.6056,-4.5993,-4.5966,-4.5953,-4.5854,-4.5811,-4.5722,-4.5654,-4.5609,-4.5607,-4.5575,-4.5632,-4.5621,-4.5657,-4.5655,-4.5785,-4.5798,-4.5635,-4.5637,-4.5638,0,-4.6243,-4.624,-4.6118,-4.6108,-4.6102,-4.6007,-4.6003,-4.5948,-4.5885,-4.5862,-4.5772,-4.5753,-4.5642,-4.561,-4.5543,-4.5525,-4.5511,-4.5476,-4.5458,-4.5484,-4.5489,-4.5467,-4.546,-4.5417,-4.5417,-4.5416,-4.5416,0,-4.6147,-4.6077,-4.6062,-4.6032,-4.5924,-4.5919,-4.5874,-4.5801,-4.5772,-4.5718,-4.5698,-4.5642,-4.5612,-4.557,-4.5486,-4.545,-4.5461,-4.5394,-4.5424,-4.5427,-4.5431,-4.5432,-4.5569,-4.5415,-4.5415,-4.5414,-4.5414,0,-4.602,-4.597,-4.5959,-4.5868,-4.5853,-4.5842,-4.5781,-4.5751,-4.5681,-4.5638,-4.5595,-4.5524,-4.55,-4.5441,-4.5406,-4.5384,-4.5359,-4.5322,-4.5323,-4.5315,-4.5252,-4.5342,-4.5481,-4.5493,-4.5309,-4.5308,-4.5307,0,-4.5934,-4.59,-4.5818,-4.5809,-4.5781,-4.5682,-4.5667,-4.5608,-4.555,-4.5516,-4.545,-4.5412,-4.5349,-4.5325,-4.5319,-4.525,-4.5278,-4.5243,-4.5195,-4.5195,-4.5219,-4.5345,-4.5389,-4.5461,-4.5295,-4.5296,-4.5297,0,-4.5857,-4.5726,-4.573,-4.5692,-4.5598,-4.5573,-4.5556,-4.5497,-4.548,-4.5421,-4.5404,-4.5347,-4.5297,-4.5257,-4.5192,-4.5191,-4.5256,-4.5137,-4.5134,-4.5163,-4.528,-4.5322,-4.5334,-4.5212,-4.5214,-4.5215,-4.5287,0,-4.5686,-4.5657,-4.5663,-4.5582,-4.5548,-4.5537,-4.5443,-4.5419,-4.5361,-4.53,-4.5272,-4.5197,-4.5135,-4.5124,-4.5066,-4.5092,-4.5073,-4.502,-4.4955,-4.5039,-4.506,-4.5069,-4.4932,-4.4929,-4.4927,-4.4925,0,0,-4.5624,-4.558,-4.5489,-4.5469,-4.5435,-4.5332,-4.5328,-4.5282,-4.5192,-4.517,-4.5134,-4.5043,-4.4983,-4.4959,-4.4978,-4.4952,-4.4948,-4.4921,-4.5,-4.5008,-4.5016,-4.5041,-4.5051,-4.4921,-4.4921,-4.492,-4.4919,0,-4.5542,-4.5486,-4.5483,-4.5432,-4.5354,-4.5288,-4.5288,-4.519,-4.515,-4.5121,-4.5035,-4.5006,-4.4935,-4.4883,-4.4848,-4.4922,-4.4858,-4.491,-4.4983,-4.4982,-4.4994,-4.5003,-4.5031,-4.5041,-4.4914,-4.4915,-4.4915,0,-4.545,-4.5379,-4.5367,-4.5285,-4.5232,-4.5204,-4.5114,-4.5088,-4.5066,-4.495,-4.4923,-4.4869,-4.4791,-4.478,-4.4771,-4.4737,-4.4782,-4.4749,-4.476,-4.4756,-4.475,-4.4765,-4.4777,-4.4613,-4.4613,-4.4612,0,0,-4.5392,-4.5364,-4.5256,-4.526,-4.5233,-4.5135,-4.5109,-4.5048,-4.4981,-4.4955,-4.4883,-4.482,-4.4777,-4.4751,-4.4706,-4.4707,-4.4683,-4.4716,-4.473,-4.4742,-4.4746,-4.4743,-4.4757,-4.461,-4.461,-4.461,0,0,-4.5363,-4.524,-4.5193,-4.5185,-4.5126,-4.5019,-4.5024,-4.4963,-4.4913,-4.4904,-4.4797,-4.4775,-4.4762,-4.4711,-4.469,-4.4681,-4.4619,-4.4622,-4.4715,-4.4731,-4.4745,-4.4758,-4.4586,0,0,0,0,0,-4.523,-4.5255,-4.5214,-4.5198,-4.5092,-4.5043,-4.5028,-4.4941,-4.49,-4.4906,-4.4836,-4.4768,-4.4678,-4.4657,-4.4642,-4.4667,-4.4578,-4.4584,-4.4589,-4.4709,-4.4727,-4.4743,0,0,0,0,0,0,-4.5223,-4.5205,-4.5213,-4.5109,-4.5084,-4.5041,-4.4952,-4.4929,-4.4897,-4.4885,-4.4784,-4.4765,-4.4689,-4.4658,-4.4647,-4.4671,-4.4589,-4.4581,-4.4585,-4.459,-4.4715,-4.473,-4.4743,0,0,0,0,0,-4.5218,-4.5202,-4.5055,-4.5108,-4.5086,-4.4977,-4.495,-4.493,-4.4904,-4.4795,-4.4774,-4.4841,-4.4692,-4.4676,-4.4651,-4.4679,-4.4597,-4.4593,-4.4584,-4.4587,-4.4591,-4.4723,0,0,0,0,0,0,-4.5213,-4.5183,-4.5048,-4.5038,-4.5092,-4.4978,-4.4957,-4.4932,-4.4814,-4.4793,-4.4847,-4.4839,-4.4694,-4.4681,-4.4669,-4.4687,-4.4603,-4.4599,-4.4596,-4.4586,-4.4589,-4.4592,0,0,0,0,0,0,-4.5191,-4.5176,-4.5043,-4.5028,-4.5015,-4.4979,-4.496,-4.4926,-4.4814,-4.4872,-4.4861,-4.4845,-4.4711,-4.4686,-4.4676,-4.4625,-4.4608,-4.4604,-4.4601,-4.4599,-4.4589,-4.4591,0,0,0,0,0,0,-4.5183,-4.517,-4.503,-4.502,-4.5009,-4.4892,-4.4946,-4.4841,-4.4803,-4.4879,-4.4797,-4.4794,-4.4718,-4.4706,-4.4681,-4.4635,-4.4628,-4.4608,-4.4605,-4.4603,-4.4602,0,0,0,0,0,0,0,-4.5176,-4.5284,-4.5107,-4.5014,-4.5004,-4.4947,-4.4945,-4.4942,-4.4802,-4.48,-4.4797,-4.4795,-4.463,-4.4626,-4.4622,-4.4643,0,0,-4.4608,-4.4606,0,0,0,0,0,0,0,0,-4.5287,-4.5285,-4.5107,-4.5105,-4.5103,-4.4947,-4.4945,-4.4942,-4.4802,-4.48,-4.4798,-4.4796,-4.4629,-4.4626,-4.4622,0,0,0,0,0,0,0,0,0,0,0,0,0,0,0,-4.5107,-4.5105,0,-4.4947,-4.4945,-4.4943,-4.4802,-4.48,-4.4798,-4.4797,-4.4628,-4.4625,-4.4622,0,0,0,0,0,0,0,0,0,0,0,0,0,0,0,0,0,0,0,0,0,0,0,0,0,0,0,0,0,0,0,0,0,0,0,0,0,0,0,0,0,0,0,0,0,0,0,0,0,0,0,0,0,0,0,0,0,0,0,0,0,0,0,0,0,0,0,0,0]}],[{"header":{"parameterUnit":"kt","parameterCategory":2,"dx":1,"dy":1,"la1":30.253999710083008,"la2":30.299108505249023,"lo1":-89.0895004272461,"lo2":-89.04439544677734,"nx":28,"ny":28,"refTime":"2022-10-08T21:00:00:Z","depth":0,"parameterNumber":2,"parameterNumberName":"V-component_of_WINDS"},"data":[-8.294,-8.2988,-8.2999,-8.3059,-8.3076,-8.3118,-8.3135,-8.3159,-8.3178,-8.3226,-8.3255,-8.3265,-8.3284,-8.3318,-8.3347,-8.335,-8.3363,-8.3379,-8.3379,-8.3307,-8.3298,-8.3288,-8.328,-8.338,-8.3381,-8.3455,-8.3455,-8.3456,-8.2902,-8.2922,-8.2954,-8.2991,-8.302,-8.3014,-8.304,-8.3064,-8.3099,-8.3121,-8.3147,-8.3188,-8.3219,-8.323,-8.3261,-8.3282,-8.3279,-8.3291,-8.329,-8.3294,-8.3216,-8.3208,-8.3294,-8.3294,-8.3294,-8.3294,-8.3294,-8.3294,-8.2835,-8.2862,-8.2889,-8.2923,-8.2943,-8.2967,-8.2993,-8.3004,-8.3033,-8.3066,-8.3064,-8.3101,-8.3121,-8.3155,-8.3166,-8.3195,-8.3181,-8.3194,-8.3198,-8.3202,-8.321,-8.3114,-8.3198,-8.3198,-8.3197,-8.3197,-8.3197,0,-8.2788,-8.2795,-8.2822,-8.2856,-8.2879,-8.2903,-8.2924,-8.294,-8.2945,-8.2966,-8.2999,-8.3017,-8.3053,-8.3082,-8.3107,-8.3113,-8.3103,-8.3099,-8.3109,-8.3114,-8.3119,-8.3123,-8.3002,-8.3096,-8.3095,-8.3094,-8.3094,-8.3093,-8.2725,-8.2752,-8.2779,-8.2798,-8.2811,-8.2839,-8.2857,-8.2859,-8.2877,-8.2901,-8.2922,-8.295,-8.2972,-8.3017,-8.3022,-8.3046,-8.304,-8.3078,-8.3043,-8.305,-8.3047,-8.3047,-8.3052,-8.3084,-8.3085,-8.3086,-8.3087,0,-8.269,-8.2698,-8.274,-8.276,-8.2766,-8.2794,-8.2811,-8.2833,-8.2838,-8.287,-8.2877,-8.2882,-8.291,-8.2908,-8.2935,-8.2933,-8.2982,-8.2973,-8.298,-8.2979,-8.3016,-8.3014,-8.3124,-8.3141,-8.3032,-8.3033,-8.3034,0,-8.2639,-8.2671,-8.2682,-8.2705,-8.2743,-8.2742,-8.2778,-8.2785,-8.2798,-8.2823,-8.281,-8.2833,-8.2825,-8.2848,-8.2844,-8.2882,-8.2885,-8.2887,-8.2886,-8.289,-8.2891,-8.2899,-8.2896,-8.2876,-8.2875,-8.2874,-8.2874,0,-8.2584,-8.2623,-8.2661,-8.267,-8.2691,-8.2708,-8.2717,-8.2729,-8.2744,-8.2761,-8.2771,-8.2789,-8.28,-8.2815,-8.2811,-8.2788,-8.2854,-8.2822,-8.2856,-8.2857,-8.2871,-8.2871,-8.2968,-8.2873,-8.2873,-8.2873,-8.2873,0,-8.2542,-8.2563,-8.2614,-8.2632,-8.2641,-8.2663,-8.2685,-8.2702,-8.2716,-8.2715,-8.2728,-8.2717,-8.2745,-8.2715,-8.2755,-8.2729,-8.2741,-8.2743,-8.2745,-8.2749,-8.2716,-8.2776,-8.2866,-8.2878,-8.2753,-8.2752,-8.2751,0,-8.2482,-8.2532,-8.253,-8.2576,-8.2599,-8.2586,-8.261,-8.262,-8.2622,-8.264,-8.264,-8.2658,-8.2634,-8.2639,-8.2659,-8.2659,-8.2693,-8.2653,-8.2681,-8.2682,-8.2685,-8.2767,-8.2782,-8.2847,-8.2738,-8.2739,-8.274,0,-8.2433,-8.2455,-8.2462,-8.2474,-8.2487,-8.2502,-8.2528,-8.2547,-8.2561,-8.2569,-8.2592,-8.2613,-8.2599,-8.2605,-8.2595,-8.2616,-8.2669,-8.2595,-8.2594,-8.2613,-8.2728,-8.2745,-8.2756,-8.2658,-8.266,-8.2661,-8.273,0,-8.2379,-8.24,-8.242,-8.2438,-8.245,-8.2474,-8.2471,-8.2483,-8.2476,-8.2475,-8.2504,-8.2504,-8.2517,-8.2524,-8.2512,-8.256,-8.2551,-8.2532,-8.2502,-8.2554,-8.2577,-8.2586,-8.247,-8.2469,-8.2468,-8.2467,0,0,-8.232,-8.235,-8.2342,-8.2366,-8.2376,-8.2357,-8.2385,-8.239,-8.2399,-8.2406,-8.239,-8.242,-8.2418,-8.2454,-8.2469,-8.2471,-8.248,-8.2459,-8.2528,-8.2535,-8.2541,-8.2566,-8.2575,-8.2466,-8.2466,-8.2465,-8.2465,0,-8.2299,-8.2302,-8.2329,-8.2335,-8.2344,-8.234,-8.2347,-8.235,-8.2349,-8.2375,-8.2356,-8.2371,-8.2389,-8.2394,-8.2398,-8.2456,-8.2439,-8.2459,-8.2496,-8.252,-8.2528,-8.2535,-8.2561,-8.257,-8.2463,-8.2463,-8.2463,0,-8.2254,-8.2258,-8.2269,-8.2285,-8.2288,-8.2307,-8.2278,-8.2296,-8.2311,-8.2281,-8.2306,-8.2304,-8.2305,-8.2336,-8.2349,-8.2333,-8.2404,-8.2376,-8.238,-8.2382,-8.2405,-8.2414,-8.2423,-8.2312,-8.2312,-8.2312,0,0,-8.2235,-8.2253,-8.2253,-8.2279,-8.2284,-8.2277,-8.2284,-8.2275,-8.2279,-8.228,-8.2276,-8.2278,-8.229,-8.2297,-8.2306,-8.234,-8.2341,-8.2358,-8.2365,-8.2371,-8.2375,-8.24,-8.2409,-8.231,-8.231,-8.231,0,0,-8.2225,-8.2228,-8.2219,-8.2248,-8.2255,-8.2253,-8.2269,-8.2257,-8.2264,-8.226,-8.2242,-8.2241,-8.2269,-8.2265,-8.2244,-8.2296,-8.2266,-8.2271,-8.2297,-8.2306,-8.2313,-8.2314,-8.2209,0,0,0,0,0,-8.22,-8.2228,-8.222,-8.2224,-8.224,-8.2258,-8.226,-8.2248,-8.223,-8.2244,-8.2239,-8.2218,-8.2251,-8.2232,-8.2235,-8.2258,-8.2287,-8.2291,-8.2295,-8.2337,-8.2346,-8.2354,0,0,0,0,0,0,-8.2201,-8.2206,-8.2219,-8.2219,-8.2223,-8.2257,-8.2225,-8.2222,-8.2228,-8.2225,-8.222,-8.2218,-8.2205,-8.2229,-8.2232,-8.2255,-8.2208,-8.2289,-8.2292,-8.2295,-8.234,-8.2348,-8.2355,0,0,0,0,0,-8.2202,-8.2206,-8.2234,-8.2219,-8.2222,-8.2213,-8.2223,-8.2221,-8.2225,-8.2215,-8.2212,-8.2216,-8.2206,-8.2208,-8.2231,-8.2254,-8.2206,-8.2207,-8.2291,-8.2294,-8.2296,-8.2344,0,0,0,0,0,0,-8.2203,-8.2203,-8.2235,-8.2235,-8.2206,-8.2211,-8.2211,-8.222,-8.2215,-8.2213,-8.2209,-8.2206,-8.2208,-8.2208,-8.2209,-8.2255,-8.2204,-8.2205,-8.2206,-8.2293,-8.2295,-8.2297,0,0,0,0,0,0,-8.2201,-8.2204,-8.2235,-8.222,-8.2218,-8.2209,-8.2209,-8.2224,-8.2215,-8.2209,-8.2206,-8.2208,-8.2205,-8.2209,-8.2209,-8.2234,-8.2203,-8.2204,-8.2205,-8.2205,-8.2295,-8.2297,0,0,0,0,0,0,-8.2202,-8.2204,-8.222,-8.2218,-8.2217,-8.222,-8.2222,-8.2237,-8.2206,-8.2209,-8.2202,-8.2201,-8.2206,-8.2206,-8.221,-8.2234,-8.2234,-8.2203,-8.2204,-8.2204,-8.2205,0,0,0,0,0,0,0,-8.2203,-8.2191,-8.2233,-8.2217,-8.2216,-8.2238,-8.2239,-8.2239,-8.2205,-8.2204,-8.2203,-8.2201,-8.2197,-8.2198,-8.22,-8.2234,0,0,-8.2203,-8.2203,0,0,0,0,0,0,0,0,-8.2189,-8.219,-8.2233,-8.2233,-8.2233,-8.2238,-8.2239,-8.2239,-8.2205,-8.2204,-8.2203,-8.2202,-8.2198,-8.2199,-8.2199,0,0,0,0,0,0,0,0,0,0,0,0,0,0,0,-8.2233,-8.2233,0,-8.2238,-8.2239,-8.2239,-8.2205,-8.2204,-8.2203,-8.2202,-8.2198,-8.2199,-8.2199,0,0,0,0,0,0,0,0,0,0,0,0,0,0,0,0,0,0,0,0,0,0,0,0,0,0,0,0,0,0,0,0,0,0,0,0,0,0,0,0,0,0,0,0,0,0,0,0,0,0,0,0,0,0,0,0,0,0,0,0,0,0,0,0,0,0,0,0,0]}]]]